Location: Bourg-d�Oueil
(42.8588°N, 0.4991°E)
Time: 18:04:58
(UTC+00:00)

Cosmos 2285 Rocket - Pass Details

Date: 16 June 2021
Orbit: 971 x 998 km, 74.0° (Epoch: 02 August)

Event Time Altitude Azimuth Distance (km) Brightness Sun altitude
Rises 20:34:06 0° 197° (SSW) 3,703 6.8 -8.7°
Reaches altitude 10° 20:36:38 10° 196° (SSW) 2,758 6.1 -9.1°
Maximum altitude 20:43:03 87° 110° (ESE) 1,006 4.1 -9.9°
Drops below altitude 10° 20:49:31 10° 21° (NNE) 2,771 6.7 -10.7°
Sets 20:52:04 0° 21° (NNE) 3,721 7.4 -11.0°
